Location: Caltech
(34.1382°N, 118.1253°W)
Time: 01:44:37
(UTC-07:00)

Cosmos 1943 Rocket - Visible Passes

Search period start: 27 April 2018 00:00
Search period end: 07 May 2018 00:00
Orbit: 814 x 842 km, 71.0° (Epoch: 26 April)

Date Brightness Start Highest point End Pass type
(mag) Time Alt. Az. Time Alt. Az. Time Alt. Az.
27 Apr 3.9 21:21:58 10° NNE 21:25:22 16° ENE 21:25:45 16° ENE visible
27 Apr 3.5 23:04:03 10° NNW 23:07:17 35° NW 23:07:17 35° NW visible
28 Apr 4.0 21:03:11 10° NNE 21:06:05 14° NE 21:07:13 13° ENE visible
28 Apr 3.0 22:44:49 10° NNW 22:48:45 46° NW 22:48:45 46° NW visible
29 Apr 4.1 20:44:33 10° NNE 20:46:48 12° NE 20:48:42 11° ENE visible
29 Apr 2.5 22:25:37 10° NNW 22:30:15 63° NW 22:30:15 63° NW visible
30 Apr 4.2 20:26:21 10° NE 20:27:29 11° NE 20:28:38 10° ENE visible
30 Apr 2.1 22:06:25 10° NNW 22:11:47 82° N 22:11:47 82° N visible
01 May 2.0 21:47:16 10° NNW 21:52:49 75° ENE 21:53:22 69° ESE visible
01 May 4.8 23:34:23 10° W 23:34:54 11° W 23:34:54 11° W visible
02 May 2.2 21:28:06 10° NNW 21:33:38 65° ENE 21:34:58 49° SE visible
02 May 4.5 23:14:13 10° WNW 23:16:32 13° W 23:16:32 13° W visible
03 May 2.3 21:08:58 10° NNW 21:14:26 56° ENE 21:16:39 34° SE visible
03 May 4.3 22:54:26 10° WNW 22:57:37 16° W 22:58:12 15° WSW visible
04 May 2.5 20:49:51 10° N 20:55:15 48° ENE 20:58:22 24° SE visible
04 May 4.2 22:34:49 10° WNW 22:38:31 18° W 22:39:55 17° WSW visible
05 May 2.7 20:30:46 10° N 20:36:01 42° ENE 20:40:09 16° SE visible
05 May 4.1 22:15:18 10° NW 22:19:24 21° W 22:21:43 17° SW visible
06 May 2.9 20:11:41 10° N 20:16:48 36° ENE 20:21:56 10° SE visible
06 May 4.0 21:55:51 10° NW 22:00:17 25° WSW 22:03:33 15° SW visible
